Silvana, WA

3:23 PM PDT on September 24, 2016 (GMT -0700)
Arlington Municipal

Weather History for KAWO - February, 2013

Change the Weather History Date:

Wednesday, February 6, 2013

  Actual Average Record
Temperature  
Mean Temperature 45 °F -  
Max Temperature 48 °F 57 °F 60 °F (1998)
Min Temperature 42 °F 29 °F 10 °F (2014)
Degree Days  
Heating Degree Days 20    
Moisture  
Dew Point 37 °F    
Average Humidity 74    
Maximum Humidity 87    
Minimum Humidity 62    
Precipitation  
Precipitation 0.00 in - - ()
Sea Level Pressure  
Sea Level Pressure 29.96 in    
Wind  
Wind Speed 13 mph (SE)    
Max Wind Speed 18 mph    
Max Gust Speed 25 mph    
Visibility 10 miles    
Events      
Averages and records for this station are not official NWS values.
T = Trace of Precipitation, MM = Missing Value Source: NWS Daily Summary

Daily Weather History Graph

Daily Weather History Graph

Search for Another Location

Airport or City:

Trip Planner

Search our weather history database for the weather conditions in past years. The results will help you decide how hot, cold, wet, or windy it might be!

Date:

Astronomy

Feb. 06, 2013 Rise Set
Actual Time 7:29 AM PST 5:17 PM PST
Civil Twilight 6:56 AM PST 5:49 PM PST
Nautical Twilight 6:19 AM PST 6:26 PM PST
Astronomical Twilight 5:43 AM PST 7:03 PM PST
Moon 4:27 AM PST (2/6) 1:32 PM PST (2/6)
Length of Visible Light 10h 53m
Length of Day
9h 47m
Waning Crescent, 16% of the Moon is Illuminated
Feb 6
Waning Crescent
Feb 9
New
Feb 17
First Quarter
Feb 25
Full
Mar 4
Last Quarter

Hourly Weather History & Observations

Time (PST) Temp. Windchill Dew Point Humidity Pressure Visibility Wind Dir Wind Speed Gust Speed Precip Events Conditions
12:15 AM 44.6 °F 38.4 °F 37.4 °F 76% 29.94 in 10.0 mi South 12.7 mph - N/A   Overcast
12:35 AM 44.6 °F 38.4 °F 37.4 °F 76% 29.95 in 10.0 mi South 12.7 mph - N/A   Overcast
12:55 AM 44.6 °F 37.2 °F 37.4 °F 76% 29.95 in 10.0 mi South 17.3 mph 21.9 mph N/A   Overcast
1:15 AM 44.6 °F 38.8 °F 37.4 °F 76% 29.95 in 10.0 mi South 11.5 mph - N/A   Overcast
1:35 AM 44.6 °F 38.1 °F 37.4 °F 76% 29.96 in 10.0 mi SSE 13.8 mph 20.7 mph N/A   Overcast
1:55 AM 44.6 °F 38.8 °F 37.4 °F 76% 29.97 in 10.0 mi South 11.5 mph - N/A   Overcast
2:15 AM 44.6 °F 37.4 °F 37.4 °F 76% 29.97 in 10.0 mi SSE 16.1 mph 19.6 mph N/A   Overcast
2:35 AM 44.6 °F 37.8 °F 37.4 °F 76% 29.97 in 10.0 mi SSE 15.0 mph - N/A   Overcast
2:55 AM 44.6 °F 38.8 °F 37.4 °F 76% 29.97 in 10.0 mi SSE 11.5 mph - N/A   Overcast
3:15 AM 44.6 °F 38.4 °F 37.4 °F 76% 29.98 in 10.0 mi SSE 12.7 mph - N/A   Overcast
3:35 AM 44.6 °F 38.8 °F 37.4 °F 76% 29.98 in 10.0 mi South 11.5 mph - N/A   Overcast
3:55 AM 44.6 °F 37.8 °F 37.4 °F 76% 29.98 in 10.0 mi South 15.0 mph - N/A   Overcast
4:15 AM 44.6 °F 38.1 °F 37.4 °F 76% 30.00 in 10.0 mi South 13.8 mph - N/A   Overcast
4:35 AM 44.6 °F 37.8 °F 37.4 °F 76% 30.00 in 10.0 mi South 15.0 mph 18.4 mph N/A   Overcast
4:55 AM 44.6 °F 38.1 °F 37.4 °F 76% 30.00 in 10.0 mi SSE 13.8 mph 19.6 mph N/A   Overcast
5:15 AM 44.6 °F 37.4 °F 37.4 °F 76% 30.01 in 10.0 mi SSE 16.1 mph 19.6 mph N/A   Overcast
5:35 AM 44.6 °F 38.1 °F 37.4 °F 76% 30.01 in 10.0 mi SSE 13.8 mph - N/A   Overcast
5:55 AM 44.6 °F 38.1 °F 37.4 °F 76% 30.01 in 10.0 mi SSE 13.8 mph 19.6 mph N/A   Overcast
6:15 AM 44.6 °F 38.1 °F 37.4 °F 76% 30.01 in 10.0 mi SSE 13.8 mph 19.6 mph N/A   Overcast
6:35 AM 44.6 °F 38.8 °F 37.4 °F 76% 30.02 in 10.0 mi SSE 11.5 mph 17.3 mph N/A   Overcast
6:55 AM 44.6 °F 37.8 °F 37.4 °F 76% 30.02 in 10.0 mi SSE 15.0 mph - N/A   Overcast
7:15 AM 44.6 °F 37.8 °F 37.4 °F 76% 30.03 in 10.0 mi SSE 15.0 mph 20.7 mph N/A   Overcast
7:35 AM 44.6 °F 38.4 °F 37.4 °F 76% 30.03 in 10.0 mi SSE 12.7 mph - N/A   Overcast
7:55 AM 44.6 °F 38.8 °F 37.4 °F 76% 30.03 in 10.0 mi SSE 11.5 mph - N/A   Overcast
8:35 AM 44.6 °F 37.4 °F 37.4 °F 76% 30.05 in 10.0 mi SSE 16.1 mph 24.2 mph N/A   Overcast
8:55 AM 44.6 °F 37.2 °F 37.4 °F 76% 30.05 in 10.0 mi SSE 17.3 mph - N/A   Overcast
9:15 AM 44.6 °F 37.4 °F 37.4 °F 76% 30.04 in 10.0 mi SSE 16.1 mph 21.9 mph N/A   Overcast
9:35 AM 44.6 °F 37.2 °F 37.4 °F 76% 30.04 in 10.0 mi SSE 17.3 mph 25.3 mph N/A   Overcast
9:55 AM 46.4 °F 39.8 °F 37.4 °F 71% 30.04 in 10.0 mi SSE 16.1 mph 21.9 mph N/A   Mostly Cloudy
10:15 AM 46.4 °F 40.4 °F 37.4 °F 71% 30.04 in 10.0 mi SSE 13.8 mph 18.4 mph N/A   Mostly Cloudy
10:35 AM 46.4 °F 39.5 °F 37.4 °F 71% 30.04 in 10.0 mi SSE 17.3 mph 24.2 mph N/A   Overcast
10:55 AM 46.4 °F 39.2 °F 37.4 °F 71% 30.04 in 10.0 mi SSE 18.4 mph 24.2 mph N/A   Scattered Clouds
11:15 AM 48.2 °F - 37.4 °F 66% 30.04 in 10.0 mi SSE 18.4 mph - N/A   Clear
11:35 AM 48.2 °F - 37.4 °F 66% 30.04 in 10.0 mi SSE 17.3 mph - N/A   Mostly Cloudy
11:55 AM 48.2 °F - 37.4 °F 66% 30.03 in 10.0 mi SSE 13.8 mph 21.9 mph N/A   Mostly Cloudy
12:15 PM 48.2 °F - 35.6 °F 62% 30.02 in 10.0 mi SSE 16.1 mph 21.9 mph N/A   Scattered Clouds
12:35 PM 48.2 °F - 35.6 °F 62% 30.02 in 10.0 mi SE 12.7 mph - N/A   Mostly Cloudy
12:55 PM 48.2 °F - 35.6 °F 62% 30.01 in 10.0 mi SSE 16.1 mph 21.9 mph N/A   Overcast
1:15 PM 48.2 °F - 35.6 °F 62% 30.01 in 10.0 mi SSE 12.7 mph - N/A   Overcast
1:35 PM 48.2 °F - 35.6 °F 62% 30.00 in 10.0 mi SSE 11.5 mph - N/A   Overcast
1:55 PM 48.2 °F - 35.6 °F 62% 29.99 in 10.0 mi SE 10.4 mph - N/A   Overcast
2:15 PM 48.2 °F - 35.6 °F 62% 29.98 in 10.0 mi SE 10.4 mph - N/A   Overcast
2:35 PM 46.4 °F 41.9 °F 35.6 °F 66% 29.97 in 10.0 mi ESE 9.2 mph 16.1 mph N/A   Overcast
2:55 PM 46.4 °F 41.1 °F 35.6 °F 66% 29.97 in 10.0 mi ESE 11.5 mph - N/A   Overcast
3:15 PM 48.2 °F - 35.6 °F 62% 29.97 in 10.0 mi ESE 11.5 mph 18.4 mph N/A   Overcast
3:35 PM 46.4 °F 40.1 °F 37.4 °F 71% 29.97 in 10.0 mi SE 15.0 mph 20.7 mph N/A   Overcast
3:55 PM 44.6 °F 42.2 °F 39.2 °F 81% 29.97 in 10.0 mi SE 4.6 mph - N/A   Overcast
4:15 PM 44.6 °F 40.7 °F 39.2 °F 81% 29.97 in 10.0 mi ESE 6.9 mph - N/A   Overcast
4:35 PM 44.6 °F 39.2 °F 39.2 °F 81% 29.96 in 10.0 mi ESE 10.4 mph - N/A   Overcast
4:55 PM 44.6 °F 39.2 °F 39.2 °F 81% 29.95 in 10.0 mi SE 10.4 mph - N/A   Overcast
5:15 PM 44.6 °F 38.8 °F 39.2 °F 81% 29.95 in 10.0 mi ESE 11.5 mph 18.4 mph N/A   Overcast
5:35 PM 44.6 °F 38.4 °F 39.2 °F 81% 29.94 in 10.0 mi SE 12.7 mph 19.6 mph N/A   Overcast
5:55 PM 44.6 °F 39.2 °F 37.4 °F 76% 29.94 in 10.0 mi SE 10.4 mph - N/A   Overcast
6:15 PM 44.6 °F 40.2 °F 39.2 °F 81% 29.94 in 10.0 mi SE 8.1 mph - N/A   Overcast
6:35 PM 42.8 °F 37.5 °F 39.2 °F 87% 29.92 in 10.0 mi ESE 9.2 mph - N/A   Overcast
6:55 PM 44.6 °F 38.4 °F 37.4 °F 76% 29.91 in 10.0 mi ESE 12.7 mph 17.3 mph N/A   Overcast
7:15 PM 44.6 °F 38.4 °F 37.4 °F 76% 29.90 in 10.0 mi ESE 12.7 mph - N/A   Overcast
7:35 PM 44.6 °F 39.2 °F 37.4 °F 76% 29.90 in 10.0 mi SE 10.4 mph - N/A   Overcast
7:55 PM 44.6 °F 39.2 °F 37.4 °F 76% 29.89 in 10.0 mi SE 10.4 mph - N/A   Overcast
8:15 PM 44.6 °F 41.4 °F 37.4 °F 76% 29.88 in 10.0 mi ESE 5.8 mph - N/A   Overcast
8:35 PM 44.6 °F 42.2 °F 37.4 °F 76% 29.86 in 10.0 mi ENE 4.6 mph - N/A   Overcast
8:55 PM 46.4 °F 44.3 °F 35.6 °F 66% 29.85 in 10.0 mi NE 4.6 mph - N/A   Overcast
9:15 PM 46.4 °F - 35.6 °F 66% 29.84 in 10.0 mi Calm Calm - N/A   Overcast
9:35 PM 44.6 °F 42.2 °F 35.6 °F 71% 29.84 in 10.0 mi ESE 4.6 mph - N/A   Overcast
9:55 PM 42.8 °F 40.1 °F 37.4 °F 81% 29.83 in 10.0 mi WNW 4.6 mph - N/A   Overcast
10:15 PM 44.6 °F - 37.4 °F 76% 29.82 in 10.0 mi Calm Calm - N/A   Overcast
10:35 PM 42.8 °F - 37.4 °F 81% 29.81 in 10.0 mi Calm Calm - N/A   Overcast
10:55 PM 42.8 °F - 37.4 °F 81% 29.81 in 10.0 mi Calm Calm - N/A   Overcast
11:15 PM 44.6 °F 42.2 °F 35.6 °F 71% 29.81 in 10.0 mi SW 4.6 mph - N/A   Overcast
11:35 PM 44.6 °F 42.2 °F 35.6 °F 71% 29.81 in 10.0 mi SE 4.6 mph - N/A   Overcast
11:55 PM 44.6 °F 40.2 °F 35.6 °F 71% 29.82 in 10.0 mi SSE 8.1 mph 18.4 mph N/A   Overcast